{"data":{"norad_id":58603,"epoch":"2026-09-20T02:07:52.780512Z","epoch_age_seconds":185424,"freshness":"STALE","line1":"1 58603U 23200Q   26263.08880533  .00001054  00000+0  47833-4 0  9991","line2":"2 58603  43.0041 150.8145 0001142 272.3789  87.6931 15.27578040153154","mean_motion":15.2757804,"eccentricity":0.0001142,"inclination_deg":43.0041,"raan_deg":150.8145,"arg_perigee_deg":272.3789,"mean_anomaly_deg":87.6931,"bstar":4.7833e-5,"rev_number":15315,"period_min":94.266869665133,"perigee_km":482.27141686863,"apogee_km":483.83851311344,"semimajor_km":6861.191964991,"source":"CELESTRAK","updated_at":"2026-09-21T09:00:33.919626Z"}}